12-12-2023, 00:00:03,    175,    0.7,    6.4,   0.00,   0.00, 1001.9,    0.8, -999.0
12-12-2023, 00:00:13,    174,    0.8,    6.4,   0.00,   0.00, 1001.9,    0.8, -999.0
12-12-2023, 00:00:22,    171,    1.2,    6.4,   0.00,   0.00, 1002.0,    0.3, -999.0
12-12-2023, 00:00:32,    170,    0.8,    6.3,   0.00,   0.00, 1002.0,    0.6, -999.0
12-12-2023, 00:00:43,    169,    0.4,    6.4,   0.00,   0.00, 1001.9,    0.2, -999.0
12-12-2023, 00:00:52,    122,    1.6,    6.4,   0.00,   0.00, 1002.0,    0.5, -999.0
12-12-2023, 00:01:02,    171,    0.7,    6.5,   0.00,   0.00, 1001.9,    0.6, -999.0
12-12-2023, 00:01:12,    157,    0.4,    6.4,   0.00,   0.00, 1001.9,    0.5, -999.0
12-12-2023, 00:01:22,    157,    0.0,    6.3,   0.00,   0.00, 1001.8,    0.6, -999.0
12-12-2023, 00:01:32,    157,    0.0,    6.4,   0.00,   0.00, 1001.8,    0.2, -999.0
12-12-2023, 00:01:42,    157,    0.0,    6.3,   0.00,   0.00, 1001.8,    0.4, -999.0
12-12-2023, 00:01:52,    157,    0.5,    6.4,   0.00,   0.00, 1001.9,    0.1, -999.0
12-12-2023, 00:02:02,    187,    1.1,    6.4,   0.00,   0.00, 1001.9,    0.7, -999.0
12-12-2023, 00:02:12,    186,    0.1,    6.3,   0.00,   0.00, 1001.8,    0.7, -999.0
12-12-2023, 00:02:22,    186,    0.0,    6.3,   0.00,   0.00, 1001.8,    0.5, -999.0
12-12-2023, 00:02:32,    186,    0.0,    6.3,   0.00,   0.00, 1001.8,    0.6, -999.0
12-12-2023, 00:02:42,    186,    0.0,    6.3,   0.00,   0.00, 1001.8,    0.2, -999.0
12-12-2023, 00:02:52,    186,    0.0,    6.3,   0.00,   0.00, 1001.8,    0.6, -999.0
12-12-2023, 00:03:02,    120,    0.1,    6.3,   0.00,   0.00, 1001.8,    0.2, -999.0
12-12-2023, 00:03:12,    129,    0.9,    6.4,   0.00,   0.00, 1001.9,    0.4, -999.0
12-12-2023, 00:03:22,    164,    0.0,    6.2,   0.00,   0.00, 1001.8,    0.3, -999.0
12-12-2023, 00:03:32,    131,    0.5,    6.4,   0.00,   0.00, 1001.9,    0.6, -999.0
12-12-2023, 00:03:42,    131,    0.0,    6.3,   0.00,   0.00, 1001.8,    0.5, -999.0
12-12-2023, 00:03:52,    131,    0.1,    6.4,   0.00,   0.00, 1001.8,    0.5, -999.0
12-12-2023, 00:04:02,    131,    0.0,    6.4,   0.00,   0.00, 1001.8,    0.5, -999.0
12-12-2023, 00:04:12,    132,    0.0,    6.4,   0.00,   0.00, 1001.8,    0.4, -999.0
12-12-2023, 00:04:22,    157,    0.4,    6.4,   0.00,   0.00, 1001.9,    0.3, -999.0
12-12-2023, 00:04:32,    158,    0.0,    6.3,   0.00,   0.00, 1001.8,    0.3, -999.0
12-12-2023, 00:04:42,    157,    0.0,    6.4,   0.00,   0.00, 1001.8,    0.6, -999.0
12-12-2023, 00:04:52,    135,    0.2,    6.4,   0.00,   0.00, 1001.8,    0.2, -999.0
12-12-2023, 00:05:02,    135,    0.1,    6.4,   0.00,   0.00, 1001.8,    0.4, -999.0
12-12-2023, 00:05:12,    171,    0.6,    6.2,   0.00,   0.00, 1001.9,    0.5, -999.0
12-12-2023, 00:05:22,    164,    0.1,    6.3,   0.00,   0.00, 1001.8,    0.3, -999.0
12-12-2023, 00:05:32,    167,    0.2,    6.3,   0.00,   0.00, 1001.8,    0.4, -999.0
12-12-2023, 00:05:42,    166,    0.0,    6.3,   0.00,   0.00, 1001.8,    0.4, -999.0
12-12-2023, 00:05:52,    165,    0.9,    6.4,   0.00,   0.00, 1001.8,    0.2, -999.0
12-12-2023, 00:06:02,    176,    0.0,    6.3,   0.00,   0.00, 1001.8,    0.3, -999.0
12-12-2023, 00:06:12,    179,    1.6,    6.4,   0.00,   0.00, 1001.8,    0.6, -999.0
12-12-2023, 00:06:21,    177,    0.3,    6.4,   0.00,   0.00, 1001.8,    0.7, -999.0
12-12-2023, 00:06:32,    157,    1.2,    6.4,   0.00,   0.00, 1001.8,    0.8, -999.0
12-12-2023, 00:06:42,    134,    1.6,    6.4,   0.00,   0.00, 1001.8,    0.3, -999.0
12-12-2023, 00:06:51,    134,    0.2,    6.3,   0.00,   0.00, 1001.8,    0.4, -999.0
12-12-2023, 00:07:02,    158,    2.0,    6.4,   0.00,   0.00, 1001.8,    0.4, -999.0
12-12-2023, 00:07:12,    157,    2.2,    6.4,   0.00,   0.00, 1001.8,    0.3, -999.0
12-12-2023, 00:07:22,    136,    1.0,    6.4,   0.00,   0.00, 1001.8,    0.4, -999.0
12-12-2023, 00:07:31,    165,    2.2,    6.4,   0.00,   0.00, 1001.8,    0.7, -999.0
12-12-2023, 00:07:42,    165,    1.0,    6.4,   0.00,   0.00, 1001.8,    0.4, -999.0
12-12-2023, 00:07:52,    160,    0.8,    6.4,   0.00,   0.00, 1001.7,    0.2, -999.0
12-12-2023, 00:08:01,    160,    0.0,    6.3,   0.00,   0.00, 1001.7,    0.7, -999.0
12-12-2023, 00:08:11,    160,    0.0,    6.3,   0.00,   0.00, 1001.6,    0.5, -999.0
12-12-2023, 00:08:22,    160,    0.0,    6.3,   0.00,   0.00, 1001.6,    0.6, -999.0
12-12-2023, 00:08:31,    181,    0.3,    6.3,   0.00,   0.00, 1001.6,    0.3, -999.0
12-12-2023, 00:08:41,    180,    0.3,    6.4,   0.00,   0.00, 1001.7,    0.4, -999.0
12-12-2023, 00:08:51,    180,    0.0,    6.3,   0.00,   0.00, 1001.6,    0.4, -999.0
12-12-2023, 00:09:02,    178,    0.0,    6.4,   0.00,   0.00, 1001.6,    0.3, -999.0
12-12-2023, 00:09:11,    177,    0.6,    6.4,   0.00,   0.00, 1001.7,    0.3, -999.0
12-12-2023, 00:09:21,    174,    0.6,    6.4,   0.00,   0.00, 1001.7,    0.2, -999.0
12-12-2023, 00:09:31,    138,    1.8,    6.4,   0.00,   0.00, 1001.7,    0.3, -999.0
12-12-2023, 00:09:41,    137,    1.5,    6.5,   0.00,   0.00, 1001.7,    0.8, -999.0
12-12-2023, 00:09:51,    161,    1.2,    6.5,   0.00,   0.00, 1001.7,    0.2, -999.0
12-12-2023, 00:10:01,    143,    0.1,    6.4,   0.00,   0.00, 1001.6,    0.6, -999.0
12-12-2023, 00:10:11,    159,    0.8,    6.4,   0.00,   0.00, 1001.7,    0.6, -999.0
12-12-2023, 00:10:21,    155,    0.9,    6.5,   0.00,   0.00, 1001.7,    0.3, -999.0
12-12-2023, 00:10:31,    154,    0.5,    6.4,   0.00,   0.00, 1001.6,    0.6, -999.0
12-12-2023, 00:10:41,    154,    0.7,    6.4,   0.00,   0.00, 1001.7,    0.5, -999.0
12-12-2023, 00:10:51,    153,    0.2,    6.4,   0.00,   0.00, 1001.6,    0.5, -999.0
12-12-2023, 00:11:01,    153,    0.0,    6.3,   0.00,   0.00, 1001.6,    0.4, -999.0
12-12-2023, 00:11:11,    126,    0.9,    6.4,   0.00,   0.00, 1001.6,    0.4, -999.0
12-12-2023, 00:11:21,    156,    0.6,    6.5,   0.00,   0.00, 1001.7,    0.7, -999.0
12-12-2023, 00:11:31,    153,    0.9,    6.5,   0.00,   0.00, 1001.7,    0.3, -999.0
12-12-2023, 00:11:41,    151,    0.8,    6.4,   0.00,   0.00, 1001.7,    0.3, -999.0
12-12-2023, 00:11:51,    150,    1.5,    6.5,   0.00,   0.00, 1001.7,    0.7, -999.0
12-12-2023, 00:12:01,    150,    1.1,    6.4,   0.00,   0.00, 1001.6,    0.7, -999.0
12-12-2023, 00:12:11,    149,    0.8,    6.4,   0.00,   0.00, 1001.6,    0.5, -999.0
12-12-2023, 00:12:21,    153,    0.3,    6.4,   0.00,   0.00, 1001.6,    0.6, -999.0
12-12-2023, 00:12:31,    166,    0.0,    6.4,   0.00,   0.00, 1001.5,    0.5, -999.0
12-12-2023, 00:12:41,    165,    0.5,    6.4,   0.00,   0.00, 1001.6,    0.5, -999.0
12-12-2023, 00:12:51,    153,    0.4,    6.4,   0.00,   0.00, 1001.6,    0.7, -999.0
12-12-2023, 00:13:01,    139,    0.8,    6.4,   0.00,   0.00, 1001.6,    0.7, -999.0
12-12-2023, 00:13:11,    168,    0.3,    6.5,   0.00,   0.00, 1001.6,    0.2, -999.0
12-12-2023, 00:13:21,    163,    0.5,    6.5,   0.00,   0.00, 1001.6,    0.3, -999.0
12-12-2023, 00:13:31,    163,    0.1,    6.4,   0.00,   0.00, 1001.5,    0.5, -999.0
12-12-2023, 00:13:41,    163,    0.0,    6.4,   0.00,   0.00, 1001.5,    0.3, -999.0
12-12-2023, 00:13:51,    163,    0.0,    6.4,   0.00,   0.00, 1001.6,    0.3, -999.0
12-12-2023, 00:14:01,    163,    0.7,    6.5,   0.00,   0.00, 1001.6,    0.6, -999.0
12-12-2023, 00:14:11,    163,    0.2,    6.4,   0.00,   0.00, 1001.5,    0.2, -999.0
12-12-2023, 00:14:21,    163,    0.0,    6.4,   0.00,   0.00, 1001.5,    0.3, -999.0
12-12-2023, 00:14:31,    163,    0.5,    6.4,   0.00,   0.00, 1001.5,    0.3, -999.0
12-12-2023, 00:14:40,    162,    0.0,    6.4,   0.00,   0.00, 1001.5,    0.8, -999.0
12-12-2023, 00:14:51,    162,    0.3,    6.4,   0.00,   0.00, 1001.5,    0.7, -999.0
12-12-2023, 00:15:01,    161,    1.3,    6.5,   0.00,   0.00, 1001.6,    0.5, -999.0
12-12-2023, 00:15:10,    161,    0.0,    6.4,   0.00,   0.00, 1001.5,    0.3, -999.0
12-12-2023, 00:15:20,    161,    0.0,    6.5,   0.00,   0.00, 1001.5,    0.3, -999.0
12-12-2023, 00:15:31,    161,    0.4,    6.5,   0.00,   0.00, 1001.5,    0.6, -999.0
12-12-2023, 00:15:41,    158,    0.5,    6.5,   0.00,   0.00, 1001.5,    0.3, -999.0
12-12-2023, 00:15:50,    158,    1.3,    6.5,   0.00,   0.00, 1001.6,    0.5, -999.0
12-12-2023, 00:16:01,    162,    0.3,    6.5,   0.00,   0.00, 1001.5,    0.5, -999.0
12-12-2023, 00:16:11,    132,    0.1,    6.4,   0.00,   0.00, 1001.5,    0.2, -999.0
12-12-2023, 00:16:20,    132,    0.4,    6.5,   0.00,   0.00, 1001.6,    0.7, -999.0
12-12-2023, 00:16:30,    165,    0.4,    6.4,   0.00,   0.00, 1001.5,    0.4, -999.0
12-12-2023, 00:16:41,    158,    1.6,    6.5,   0.00,   0.00, 1001.6,    0.6, -999.0
12-12-2023, 00:16:50,    175,    0.5,    6.5,   0.00,   0.00, 1001.5,    0.4, -999.0
12-12-2023, 00:17:00,    175,    0.0,    6.4,   0.00,   0.00, 1001.4,    0.3, -999.0
12-12-2023, 00:17:10,    172,    0.0,    6.4,   0.00,   0.00, 1001.5,    0.3, -999.0
12-12-2023, 00:17:21,    172,    0.0,    6.5,   0.00,   0.00, 1001.4,    0.3, -999.0
12-12-2023, 00:17:30,    171,    0.0,    6.4,   0.00,   0.00, 1001.4,    0.3, -999.0
12-12-2023, 00:17:40,    171,    0.0,    6.5,   0.00,   0.00, 1001.4,    0.5, -999.0
12-12-2023, 00:17:50,    171,    0.1,    6.4,   0.00,   0.00, 1001.5,    0.5, -999.0
12-12-2023, 00:18:00,    171,    0.3,    6.5,   0.00,   0.00, 1001.5,    0.4, -999.0
12-12-2023, 00:18:10,    168,    0.4,    6.5,   0.00,   0.00, 1001.5,    0.2, -999.0
12-12-2023, 00:18:20,    168,    0.4,    6.5,   0.00,   0.00, 1001.5,    0.5, -999.0
12-12-2023, 00:18:30,    168,    0.5,    6.5,   0.00,   0.00, 1001.6,    0.5, -999.0
12-12-2023, 00:18:40,    168,    0.0,    6.5,   0.00,   0.00, 1001.4,    0.7, -999.0
12-12-2023, 00:18:50,    167,    0.5,    6.4,   0.00,   0.00, 1001.5,    0.6, -999.0
12-12-2023, 00:19:00,    161,    1.5,    6.5,   0.00,   0.00, 1001.6,    0.4, -999.0
12-12-2023, 00:19:10,    161,    0.3,    6.5,   0.00,   0.00, 1001.5,    0.2, -999.0
12-12-2023, 00:19:20,    160,    0.0,    6.4,   0.00,   0.00, 1001.4,    0.4, -999.0
12-12-2023, 00:19:30,    174,    0.0,    6.5,   0.00,   0.00, 1001.4,    0.4, -999.0
12-12-2023, 00:19:40,    173,    0.0,    6.5,   0.00,   0.00, 1001.4,    0.4, -999.0
12-12-2023, 00:19:50,    173,    0.0,    6.4,   0.00,   0.00, 1001.4,    0.3, -999.0
12-12-2023, 00:20:00,    174,    0.1,    6.5,   0.00,   0.00, 1001.5,    0.3, -999.0
12-12-2023, 00:20:10,    173,    0.0,    6.5,   0.00,   0.00, 1001.4,    0.3, -999.0
12-12-2023, 00:20:20,    173,    0.0,    6.5,   0.00,   0.00, 1001.4,    0.3, -999.0
12-12-2023, 00:20:30,    182,    0.0,    6.5,   0.00,   0.00, 1001.4,    0.4, -999.0
12-12-2023, 00:20:40,    175,    0.6,    6.5,   0.00,   0.00, 1001.5,    0.5, -999.0
12-12-2023, 00:20:50,    175,    0.7,    6.6,   0.00,   0.00, 1001.5,    0.3, -999.0
12-12-2023, 00:21:00,    166,    0.9,    6.6,   0.00,   0.00, 1001.5,    0.5, -999.0
12-12-2023, 00:21:10,    179,    0.3,    6.5,   0.00,   0.00, 1001.5,    0.5, -999.0
12-12-2023, 00:21:20,    172,    1.4,    6.5,   0.00,   0.00, 1001.5,    0.4, -999.0
12-12-2023, 00:21:30,    171,    0.3,    6.5,   0.00,   0.00, 1001.4,    0.5, -999.0
12-12-2023, 00:21:40,    171,    0.0,    6.5,   0.00,   0.00, 1001.4,    0.5, -999.0
12-12-2023, 00:21:50,    171,    0.0,    6.5,   0.00,   0.00, 1001.3,    0.5, -999.0
12-12-2023, 00:22:00,    171,    0.0,    6.5,   0.00,   0.00, 1001.3,    0.8, -999.0
12-12-2023, 00:22:10,    171,    0.0,    6.5,   0.00,   0.00, 1001.4,    0.4, -999.0
12-12-2023, 00:22:19,    165,    0.0,    6.5,   0.00,   0.00, 1001.4,    0.5, -999.0
12-12-2023, 00:22:30,    179,    1.2,    6.6,   0.00,   0.00, 1001.5,    0.5, -999.0
12-12-2023, 00:22:40,    180,    0.3,    6.6,   0.00,   0.00, 1001.4,    0.6, -999.0
12-12-2023, 00:22:50,    173,    0.3,    6.5,   0.00,   0.00, 1001.4,    0.4, -999.0
12-12-2023, 00:22:59,    172,    0.9,    6.6,   0.00,   0.00, 1001.5,    0.5, -999.0
12-12-2023, 00:23:10,    114,    0.7,    6.6,   0.00,   0.00, 1001.5,    0.5, -999.0
12-12-2023, 00:23:20,    150,    1.8,    6.6,   0.00,   0.00, 1001.5,    0.5, -999.0
12-12-2023, 00:23:29,    167,    2.2,    6.6,   0.00,   0.00, 1001.5,    0.6, -999.0
12-12-2023, 00:23:39,    167,    1.2,    6.6,   0.00,   0.00, 1001.4,    0.3, -999.0
12-12-2023, 00:23:50,    167,    0.0,    6.5,   0.00,   0.00, 1001.3,    0.0, -999.0
12-12-2023, 00:24:00,    167,    0.0,    6.6,   0.00,   0.00, 1001.4,    0.5, -999.0
12-12-2023, 00:24:09,    165,    1.3,    6.6,   0.00,   0.00, 1001.5,    0.6, -999.0
12-12-2023, 00:24:19,    165,    1.0,    6.6,   0.00,   0.00, 1001.5,    0.3, -999.0
12-12-2023, 00:24:30,    165,    0.0,    6.6,   0.00,   0.00, 1001.4,    0.4, -999.0
12-12-2023, 00:24:39,    165,    0.0,    6.6,   0.00,   0.00, 1001.4,    0.5, -999.0
12-12-2023, 00:24:49,    165,    0.0,    6.5,   0.00,   0.00, 1001.4,    0.3, -999.0
12-12-2023, 00:25:00,    165,    0.0,    6.5,   0.00,   0.00, 1001.4,    0.5, -999.0
12-12-2023, 00:25:09,    165,    0.0,    6.6,   0.00,   0.00, 1001.3,    0.4, -999.0
12-12-2023, 00:25:19,    165,    0.0,    6.6,   0.00,   0.00, 1001.4,    0.2, -999.0
12-12-2023, 00:25:29,    164,    0.0,    6.5,   0.00,   0.00, 1001.4,    0.5, -999.0
12-12-2023, 00:25:39,    172,    0.5,    6.6,   0.00,   0.00, 1001.5,    0.5, -999.0
12-12-2023, 00:25:49,    171,    0.3,    6.6,   0.00,   0.00, 1001.5,    0.3, -999.0
12-12-2023, 00:25:59,    172,    0.0,    6.5,   0.00,   0.00, 1001.4,    0.1, -999.0
12-12-2023, 00:26:09,    171,    0.0,    6.5,   0.00,   0.00, 1001.4,    0.5, -999.0
12-12-2023, 00:26:19,    172,    0.0,    6.5,   0.00,   0.00, 1001.4,    0.3, -999.0
12-12-2023, 00:26:29,    171,    0.6,    6.6,   0.00,   0.00, 1001.5,    0.4, -999.0
12-12-2023, 00:26:39,    171,    0.8,    6.6,   0.00,   0.00, 1001.5,    0.4, -999.0
12-12-2023, 00:26:49,    171,    0.0,    6.5,   0.00,   0.00, 1001.4,    0.5, -999.0
12-12-2023, 00:26:59,    171,    0.0,    6.5,   0.00,   0.00, 1001.4,    0.5, -999.0
12-12-2023, 00:27:09,    140,    0.8,    6.6,   0.00,   0.00, 1001.4,    0.3, -999.0
12-12-2023, 00:27:19,    152,    1.3,    6.6,   0.00,   0.00, 1001.5,    0.5, -999.0
12-12-2023, 00:27:29,    151,    0.4,    6.6,   0.00,   0.00, 1001.4,    0.4, -999.0
12-12-2023, 00:27:39,    150,    0.3,    6.5,   0.00,   0.00, 1001.4,    0.5, -999.0
12-12-2023, 00:27:49,    150,    0.0,    6.5,   0.00,   0.00, 1001.3,    0.5, -999.0
12-12-2023, 00:27:59,    150,    0.0,    6.6,   0.00,   0.00, 1001.3,    0.5, -999.0
12-12-2023, 00:28:09,    151,    0.0,    6.6,   0.00,   0.00, 1001.3,    0.3, -999.0
12-12-2023, 00:28:19,    151,    0.0,    6.6,   0.00,   0.00, 1001.3,    0.3, -999.0
12-12-2023, 00:28:29,    152,    0.0,    6.6,   0.00,   0.00, 1001.3,    0.5, -999.0
12-12-2023, 00:28:39,    152,    0.0,    6.6,   0.00,   0.00, 1001.3,    0.4, -999.0
12-12-2023, 00:28:49,    153,    0.0,    6.6,   0.00,   0.00, 1001.3,    0.4, -999.0
12-12-2023, 00:28:59,    152,    0.0,    6.6,   0.00,   0.00, 1001.3,    0.4, -999.0
12-12-2023, 00:29:09,    152,    0.0,    6.6,   0.00,   0.00, 1001.3,    0.3, -999.0
12-12-2023, 00:29:19,    151,    0.5,    6.6,   0.00,   0.00, 1001.4,    0.5, -999.0
12-12-2023, 00:29:29,    151,    0.2,    6.6,   0.00,   0.00, 1001.3,    0.3, -999.0
12-12-2023, 00:29:39,    151,    0.0,    6.6,   0.00,   0.00, 1001.2,    0.5, -999.0
12-12-2023, 00:29:49,    151,    0.0,    6.5,   0.00,   0.00, 1001.2,    0.5, -999.0
12-12-2023, 00:29:59,    151,    0.0,    6.5,   0.00,   0.00, 1001.2,    0.4, -999.0
12-12-2023, 00:30:09,    150,    0.0,    6.6,   0.00,   0.00, 1001.2,    0.4, -999.0
12-12-2023, 00:30:19,    150,    0.3,    6.7,   0.00,   0.00, 1001.3,    0.2, -999.0
12-12-2023, 00:30:29,    150,    0.0,    6.6,   0.00,   0.00, 1001.2,    0.4, -999.0
12-12-2023, 00:30:38,    150,    0.0,    6.6,   0.00,   0.00, 1001.2,    0.4, -999.0
12-12-2023, 00:30:49,    150,    0.0,    6.6,   0.00,   0.00, 1001.2,    0.4, -999.0
12-12-2023, 00:30:59,    150,    0.0,    6.6,   0.00,   0.00, 1001.2,    0.4, -999.0
12-12-2023, 00:31:09,    150,    0.0,    6.7,   0.00,   0.00, 1001.3,    0.2, -999.0
12-12-2023, 00:31:18,    150,    0.0,    6.7,   0.00,   0.00, 1001.2,    0.5, -999.0
12-12-2023, 00:31:29,    150,    0.0,    6.6,   0.00,   0.00, 1001.2,    0.5, -999.0
12-12-2023, 00:31:39,    150,    0.1,    6.7,   0.00,   0.00, 1001.2,    0.2, -999.0
12-12-2023, 00:31:48,    150,    0.1,    6.7,   0.00,   0.00, 1001.3,    0.1, -999.0
12-12-2023, 00:31:58,    150,    0.0,    6.7,   0.00,   0.00, 1001.2,    0.3, -999.0
12-12-2023, 00:32:09,    150,    0.0,    6.7,   0.00,   0.00, 1001.2,    0.3, -999.0
12-12-2023, 00:32:18,    150,    0.0,    6.7,   0.00,   0.00, 1001.2,    0.5, -999.0
12-12-2023, 00:32:28,    150,    0.0,    6.6,   0.00,   0.00, 1001.2,    0.8, -999.0
12-12-2023, 00:32:39,    150,    0.0,    6.7,   0.00,   0.00, 1001.2,    0.7, -999.0
12-12-2023, 00:32:48,    150,    0.5,    6.8,   0.00,   0.00, 1001.3,    0.4, -999.0
12-12-2023, 00:32:58,    149,    0.0,    6.7,   0.00,   0.00, 1001.2,    0.2, -999.0
12-12-2023, 00:33:08,    150,    0.0,    6.7,   0.00,   0.00, 1001.2,    0.7, -999.0
12-12-2023, 00:33:19,    150,    0.0,    6.7,   0.00,   0.00, 1001.2,    0.4, -999.0
12-12-2023, 00:33:28,    149,    0.0,    6.8,   0.00,   0.00, 1001.2,    0.6, -999.0
12-12-2023, 00:33:38,    149,    0.5,    6.8,   0.00,   0.00, 1001.3,    0.2, -999.0
12-12-2023, 00:33:48,    149,    0.1,    6.8,   0.00,   0.00, 1001.3,    0.1, -999.0
12-12-2023, 00:33:58,    148,    0.9,    6.8,   0.00,   0.00, 1001.3,    0.4, -999.0
12-12-2023, 00:34:08,    149,    0.7,    6.8,   0.00,   0.00, 1001.3,    0.6, -999.0
12-12-2023, 00:34:18,    149,    0.0,    6.8,   0.00,   0.00, 1001.2,    0.1, -999.0
12-12-2023, 00:34:28,    148,    0.0,    6.7,   0.00,   0.00, 1001.2,    0.4, -999.0
12-12-2023, 00:34:38,    148,    0.0,    6.7,   0.00,   0.00, 1001.2,    0.3, -999.0
12-12-2023, 00:34:48,    152,    0.0,    6.6,   0.00,   0.00, 1001.2,    0.7, -999.0
12-12-2023, 00:34:58,    151,    0.0,    6.6,   0.00,   0.00, 1001.2,    0.4, -999.0
12-12-2023, 00:35:08,    149,    0.1,    6.8,   0.00,   0.00, 1001.2,    0.4, -999.0
12-12-2023, 00:35:18,    172,    1.9,    6.8,   0.00,   0.00, 1001.3,    0.4, -999.0
12-12-2023, 00:35:28,    170,    0.9,    6.8,   0.00,   0.00, 1001.4,    0.4, -999.0
12-12-2023, 00:35:38,    170,    0.2,    6.8,   0.00,   0.00, 1001.3,    0.5, -999.0
12-12-2023, 00:35:48,    170,    0.0,    6.7,   0.00,   0.00, 1001.2,    0.4, -999.0
12-12-2023, 00:35:58,    170,    0.0,    6.8,   0.00,   0.00, 1001.2,    0.7, -999.0
12-12-2023, 00:36:08,    170,    0.0,    6.7,   0.00,   0.00, 1001.2,    0.1, -999.0
12-12-2023, 00:36:18,    170,    0.0,    6.8,   0.00,   0.00, 1001.2,    0.5, -999.0
12-12-2023, 00:36:28,    164,    0.6,    6.8,   0.00,   0.00, 1001.3,    0.2, -999.0
12-12-2023, 00:36:38,    163,    0.6,    6.8,   0.00,   0.00, 1001.3,    0.6, -999.0
12-12-2023, 00:36:48,    163,    0.1,    6.8,   0.00,   0.00, 1001.2,    0.5, -999.0
12-12-2023, 00:36:58,    163,    0.0,    6.8,   0.00,   0.00, 1001.2,    0.2, -999.0
12-12-2023, 00:37:08,    163,    0.1,    6.8,   0.00,   0.00, 1001.2,    0.4, -999.0
12-12-2023, 00:37:18,    163,    0.0,    6.8,   0.00,   0.00, 1001.2,    0.4, -999.0
12-12-2023, 00:37:28,    163,    0.0,    6.9,   0.00,   0.00, 1001.2,    0.3, -999.0
12-12-2023, 00:37:38,    163,    0.0,    6.8,   0.00,   0.00, 1001.2,    0.3, -999.0
12-12-2023, 00:37:48,    163,    0.0,    6.9,   0.00,   0.00, 1001.2,    0.6, -999.0
12-12-2023, 00:37:58,    166,    0.1,    6.9,   0.00,   0.00, 1001.2,    0.5, -999.0
12-12-2023, 00:38:08,    163,    0.0,    6.9,   0.00,   0.00, 1001.2,    0.3, -999.0
12-12-2023, 00:38:18,    166,    0.0,    6.8,   0.00,   0.00, 1001.1,    0.4, -999.0
12-12-2023, 00:38:27,    166,    0.0,    6.8,   0.00,   0.00, 1001.1,    0.3, -999.0
12-12-2023, 00:38:38,    167,    0.0,    6.8,   0.00,   0.00, 1001.2,    0.2, -999.0
12-12-2023, 00:38:48,    167,    0.0,    6.9,   0.00,   0.00, 1001.1,    0.3, -999.0
12-12-2023, 00:38:58,    163,    0.0,    6.8,   0.00,   0.00, 1001.1,    0.4, -999.0
12-12-2023, 00:39:07,    161,    0.7,    6.8,   0.00,   0.00, 1001.2,    0.1, -999.0
12-12-2023, 00:39:18,    160,    0.1,    6.9,   0.00,   0.00, 1001.1,    0.4, -999.0
12-12-2023, 00:39:28,    129,    1.5,    6.9,   0.00,   0.00, 1001.2,    0.6, -999.0
12-12-2023, 00:39:37,    148,    0.4,    6.9,   0.00,   0.00, 1001.2,    0.3, -999.0
12-12-2023, 00:39:47,    168,    0.5,    6.9,   0.00,   0.00, 1001.2,    0.4, -999.0
12-12-2023, 00:39:58,    167,    0.1,    6.9,   0.00,   0.00, 1001.1,    0.4, -999.0
12-12-2023, 00:40:07,    167,    0.0,    6.8,   0.00,   0.00, 1001.1,    0.3, -999.0
12-12-2023, 00:40:17,    161,    0.6,    6.9,   0.00,   0.00, 1001.2,    0.4, -999.0
12-12-2023, 00:40:27,    159,    0.8,    6.9,   0.00,   0.00, 1001.2,    0.5, -999.0
12-12-2023, 00:40:38,    159,    0.7,    6.9,   0.00,   0.00, 1001.2,    0.4, -999.0
12-12-2023, 00:40:47,    158,    0.0,    6.9,   0.00,   0.00, 1001.1,    0.4, -999.0
12-12-2023, 00:40:57,    157,    1.2,    7.0,   0.00,   0.00, 1001.2,    0.6, -999.0
12-12-2023, 00:41:08,    136,    1.7,    6.9,   0.00,   0.00, 1001.2,    0.5, -999.0
12-12-2023, 00:41:17,    175,    2.1,    6.9,   0.00,   0.00, 1001.2,    0.4, -999.0
12-12-2023, 00:41:27,    167,    1.3,    7.0,   0.00,   0.00, 1001.2,    0.4, -999.0
12-12-2023, 00:41:37,    166,    0.5,    6.9,   0.00,   0.00, 1001.1,    0.5, -999.0
12-12-2023, 00:41:47,    169,    0.8,    6.9,   0.00,   0.00, 1001.2,    0.5, -999.0
12-12-2023, 00:41:57,    167,    0.2,    6.9,   0.00,   0.00, 1001.2,    0.3, -999.0
12-12-2023, 00:42:07,    171,    0.2,    6.9,   0.00,   0.00, 1001.1,    0.7, -999.0
12-12-2023, 00:42:17,    171,    0.0,    6.8,   0.00,   0.00, 1001.1,    0.3, -999.0
12-12-2023, 00:42:27,    170,    0.0,    6.8,   0.00,   0.00, 1001.1,    0.1, -999.0
12-12-2023, 00:42:37,    161,    1.7,    7.0,   0.00,   0.00, 1001.2,    0.5, -999.0
12-12-2023, 00:42:47,    167,    1.6,    6.9,   0.00,   0.00, 1001.2,    0.5, -999.0
12-12-2023, 00:42:57,    166,    0.2,    6.9,   0.00,   0.00, 1001.1,    0.6, -999.0
12-12-2023, 00:43:07,    166,    0.7,    6.9,   0.00,   0.00, 1001.2,    0.7, -999.0
12-12-2023, 00:43:17,    166,    0.3,    7.0,   0.00,   0.00, 1001.2,    0.9, -999.0
12-12-2023, 00:43:27,    165,    0.0,    6.9,   0.00,   0.00, 1001.1,    0.4, -999.0
12-12-2023, 00:43:37,    165,    0.0,    6.9,   0.00,   0.00, 1001.0,    0.6, -999.0
12-12-2023, 00:43:47,    165,    0.0,    7.0,   0.00,   0.00, 1001.0,    0.4, -999.0
12-12-2023, 00:43:57,    165,    0.0,    6.9,   0.00,   0.00, 1001.0,    0.6, -999.0
12-12-2023, 00:44:07,    165,    0.0,    6.9,   0.00,   0.00, 1001.0,    0.0, -999.0
12-12-2023, 00:44:17,    165,    0.0,    6.9,   0.00,   0.00, 1001.0,    0.0, -999.0
12-12-2023, 00:44:27,    165,    0.0,    6.9,   0.00,   0.00, 1001.0,    0.3, -999.0
12-12-2023, 00:44:37,    165,    0.0,    7.0,   0.00,   0.00, 1001.0,    0.4, -999.0
12-12-2023, 00:44:47,    165,    0.1,    7.0,   0.00,   0.00, 1001.1,    0.5, -999.0
12-12-2023, 00:44:57,    165,    0.2,    7.0,   0.00,   0.00, 1001.1,    0.4, -999.0
12-12-2023, 00:45:07,    164,    0.4,    7.0,   0.00,   0.00, 1001.1,    0.6, -999.0
12-12-2023, 00:45:17,    164,    0.0,    7.0,   0.00,   0.00, 1001.0,    0.8, -999.0
12-12-2023, 00:45:27,    163,    0.7,    7.0,   0.00,   0.00, 1001.1,    0.6, -999.0
12-12-2023, 00:45:37,    127,    1.1,    7.0,   0.00,   0.00, 1001.2,    0.6, -999.0
12-12-2023, 00:45:47,    139,    1.1,    7.0,   0.00,   0.00, 1001.2,    0.4, -999.0
12-12-2023, 00:45:57,    138,    0.7,    7.0,   0.00,   0.00, 1001.1,    0.3, -999.0
12-12-2023, 00:46:06,    138,    0.0,    6.9,   0.00,   0.00, 1001.0,    0.5, -999.0
12-12-2023, 00:46:17,    139,    0.0,    6.9,   0.00,   0.00, 1001.0,    0.4, -999.0
12-12-2023, 00:46:27,    138,    0.0,    6.9,   0.00,   0.00, 1001.0,    0.2, -999.0
12-12-2023, 00:46:37,    143,    0.0,    6.9,   0.00,   0.00, 1001.0,    0.5, -999.0
12-12-2023, 00:46:46,    143,    0.0,    6.9,   0.00,   0.00, 1001.0,    0.3, -999.0